Time,TemperatureF,DewpointF,PressureIn,WindDirection,WindDirectionDegrees,WindSpeedMPH,WindSpeedGustMPH,Humidity,HourlyPrecipIn,Conditions,Clouds,dailyrainin,SoftwareType,DateUTC
2013-11-03 00:23:00,39.0,34.0,30.02,North,360,7.0,-999.0,82,-99.99,,,-99.99,,2013-11-03 05:23:00,
2013-11-03 00:43:00,39.0,34.0,30.02,SE,141,6.0,-999.0,82,-99.99,,,-99.99,,2013-11-03 05:43:00,
2013-11-03 00:53:00,39.0,34.0,30.01,North,360,6.0,-999.0,82,-99.99,,,-99.99,,2013-11-03 05:53:00,
2013-11-03 01:12:00,39.0,34.0,30.01,North,360,6.0,-999.0,83,-99.99,,,-99.99,,2013-11-03 06:12:00,
2013-11-03 01:23:00,39.0,34.0,30.01,SE,134,7.0,-999.0,83,-99.99,,,-99.99,,2013-11-03 06:23:00,
2013-11-03 01:43:00,39.0,34.0,30.01,SE,136,5.0,-999.0,83,-99.99,,,-99.99,,2013-11-03 06:43:00,
2013-11-03 01:52:00,39.0,34.0,30.01,North,360,6.0,-999.0,82,-99.99,,,-99.99,,2013-11-03 06:52:00,
2013-11-03 01:22:00,39.0,34.0,29.99,North,360,8.0,-999.0,82,-99.99,,,-99.99,,2013-11-03 07:22:00,
2013-11-03 01:42:00,38.0,33.0,29.99,North,360,8.0,-999.0,83,-99.99,,,-99.99,,2013-11-03 07:42:00,
2013-11-03 01:52:00,38.0,33.0,29.99,North,360,9.0,-999.0,82,-99.99,,,-99.99,,2013-11-03 07:52:00,
2013-11-03 02:21:00,37.0,32.0,29.98,North,360,8.0,-999.0,83,-99.99,,,-99.99,,2013-11-03 08:21:00,
2013-11-03 02:42:00,37.0,33.0,29.98,North,360,8.0,-999.0,84,-99.99,,,-99.99,,2013-11-03 08:42:00,
2013-11-03 02:52:00,37.0,33.0,29.97,North,360,7.0,-999.0,85,-99.99,,,-99.99,,2013-11-03 08:52:00,
2013-11-03 03:12:00,37.0,33.0,29.97,North,360,8.0,-999.0,85,-99.99,,,-99.99,,2013-11-03 09:12:00,
2013-11-03 03:22:00,36.0,32.0,29.96,North,360,9.0,-999.0,85,-99.99,,,-99.99,,2013-11-03 09:22:00,
2013-11-03 03:53:00,36.0,32.0,29.95,ESE,112,10.0,-999.0,86,-99.99,,,-99.99,,2013-11-03 09:53:00,
2013-11-03 04:23:00,35.0,31.0,29.93,North,360,11.0,-999.0,86,-99.99,,,-99.99,,2013-11-03 10:23:00,
2013-11-03 04:52:00,35.0,32.0,29.92,ESE,113,8.0,-999.0,87,-99.99,,,-99.99,,2013-11-03 10:52:00,
2013-11-03 05:22:00,35.0,31.0,29.91,ESE,111,10.0,-999.0,86,-99.99,,,-99.99,,2013-11-03 11:22:00,
2013-11-03 05:43:00,35.0,31.0,29.91,ESE,112,12.0,-999.0,85,-99.99,,,-99.99,,2013-11-03 11:43:00,
2013-11-03 05:52:00,35.0,31.0,29.90,ESE,111,13.0,-999.0,85,-99.99,,,-99.99,,2013-11-03 11:52:00,
2013-11-03 06:22:00,35.0,31.0,29.89,East,101,10.0,-999.0,85,-99.99,,,-99.99,,2013-11-03 12:22:00,
2013-11-03 06:52:00,35.0,31.0,29.89,North,360,11.0,-999.0,85,-99.99,,,-99.99,,2013-11-03 12:52:00,
2013-11-03 07:21:00,35.0,31.0,29.88,North,360,12.0,-999.0,85,-99.99,,,-99.99,,2013-11-03 13:21:00,
2013-11-03 07:42:00,35.0,31.0,29.88,North,360,13.0,-999.0,84,-99.99,,,-99.99,,2013-11-03 13:42:00,
2013-11-03 07:52:00,36.0,31.0,29.88,North,360,13.0,-999.0,82,-99.99,,,-99.99,,2013-11-03 13:52:00,
2013-11-03 08:22:00,36.0,31.0,29.87,North,360,13.0,-999.0,83,-99.99,,,-99.99,,2013-11-03 14:22:00,
2013-11-03 08:52:00,37.0,32.0,29.87,North,360,15.0,-999.0,81,-99.99,,,-99.99,,2013-11-03 14:52:00,
2013-11-03 09:22:00,39.0,33.0,29.86,South,178,14.0,-999.0,79,-99.99,,,-99.99,,2013-11-03 15:22:00,
2013-11-03 09:43:00,41.0,34.0,29.85,SE,140,16.0,-999.0,75,-99.99,,,-99.99,,2013-11-03 15:43:00,
2013-11-03 09:53:00,42.0,34.0,29.84,North,360,17.0,-999.0,72,-99.99,,,-99.99,,2013-11-03 15:53:00,
2013-11-03 10:23:00,43.0,34.0,29.83,North,360,16.0,-999.0,70,-99.99,,,-99.99,,2013-11-03 16:23:00,
2013-11-03 10:43:00,43.0,34.0,29.82,ESE,106,16.0,-999.0,70,-99.99,,,-99.99,,2013-11-03 16:43:00,
2013-11-03 10:53:00,44.0,35.0,29.80,North,360,17.0,-999.0,71,-99.99,,,-99.99,,2013-11-03 16:53:00,
2013-11-03 11:23:00,50.0,35.0,29.78,SSE,148,19.0,-999.0,57,-99.99,,,-99.99,,2013-11-03 17:23:00,
2013-11-03 11:43:00,50.0,34.0,29.78,ESE,107,25.0,-999.0,54,-99.99,,,-99.99,,2013-11-03 17:43:00,
2013-11-03 11:53:00,50.0,35.0,29.76,North,360,26.0,-999.0,56,-99.99,,,-99.99,,2013-11-03 17:53:00,
2013-11-03 12:23:00,51.0,34.0,29.73,North,360,26.0,-999.0,52,-99.99,,,-99.99,,2013-11-03 18:23:00,
2013-11-03 12:42:00,51.0,34.0,29.74,North,360,24.0,-999.0,53,-99.99,,,-99.99,,2013-11-03 18:42:00,
2013-11-03 12:52:00,51.0,35.0,29.74,North,360,25.0,-999.0,55,-99.99,,,-99.99,,2013-11-03 18:52:00,
2013-11-03 13:22:00,52.0,34.0,29.72,SSE,155,24.0,-999.0,51,-99.99,,,-99.99,,2013-11-03 19:22:00,
2013-11-03 13:42:00,53.0,34.0,29.72,North,360,26.0,-999.0,48,-99.99,,,-99.99,,2013-11-03 19:42:00,
2013-11-03 13:53:00,54.0,34.0,29.71,South,178,25.0,-999.0,47,-99.99,,,-99.99,,2013-11-03 19:53:00,
2013-11-03 14:01:00,54.0,34.0,29.71,South,178,25.0,-999.0,47,-99.99,,,-99.99,,2013-11-03 20:01:00,
2013-11-03 14:22:00,54.0,33.0,29.71,SSE,168,24.0,-999.0,45,-99.99,,,-99.99,,2013-11-03 20:22:00,
2013-11-03 14:52:00,56.0,33.0,29.71,North,360,29.0,-999.0,41,-99.99,,,-99.99,,2013-11-03 20:52:00,
2013-11-03 15:22:00,54.0,33.0,29.71,SSE,165,20.0,-999.0,45,-99.99,,,-99.99,,2013-11-03 21:22:00,
2013-11-03 15:43:00,54.0,33.0,29.70,SSE,155,25.0,-999.0,45,-99.99,,,-99.99,,2013-11-03 21:43:00,
2013-11-03 15:54:00,55.0,35.0,29.70,North,360,21.0,-999.0,46,-99.99,,,-99.99,,2013-11-03 21:54:00,
2013-11-03 16:22:00,53.0,34.0,29.70,SSE,153,19.0,-999.0,48,-99.99,,,-99.99,,2013-11-03 22:22:00,
2013-11-03 16:43:00,53.0,34.0,29.70,SSE,151,19.0,-999.0,48,-99.99,,,-99.99,,2013-11-03 22:43:00,
2013-11-03 16:52:00,53.0,34.0,29.69,North,360,20.0,-999.0,48,-99.99,,,-99.99,,2013-11-03 22:52:00,
2013-11-03 17:23:00,52.0,34.0,29.69,North,360,18.0,-999.0,50,-99.99,,,-99.99,,2013-11-03 23:23:00,
2013-11-03 17:42:00,51.0,34.0,29.69,SE,146,18.0,-999.0,51,-99.99,,,-99.99,,2013-11-03 23:42:00,
2013-11-03 17:53:00,51.0,34.0,29.69,North,360,17.0,-999.0,51,-99.99,,,-99.99,,2013-11-03 23:53:00,
2013-11-03 18:22:00,50.0,34.0,29.70,North,360,17.0,-999.0,53,-99.99,,,-99.99,,2013-11-04 00:22:00,
2013-11-03 18:42:00,50.0,34.0,29.70,North,360,17.0,-999.0,53,-99.99,,,-99.99,,2013-11-04 00:42:00,
2013-11-03 18:52:00,50.0,34.0,29.70,North,360,17.0,-999.0,53,-99.99,,,-99.99,,2013-11-04 00:52:00,
2013-11-03 19:22:00,49.0,33.0,29.71,SE,146,17.0,-999.0,54,-99.99,,,-99.99,,2013-11-04 01:22:00,
2013-11-03 19:52:00,49.0,34.0,29.71,SSE,148,16.0,-999.0,57,-99.99,,,-99.99,,2013-11-04 01:52:00,
2013-11-03 20:22:00,48.0,34.0,29.71,North,360,16.0,-999.0,57,-99.99,,,-99.99,,2013-11-04 02:22:00,
2013-11-03 20:42:00,48.0,34.0,29.71,North,360,15.0,-999.0,58,-99.99,,,-99.99,,2013-11-04 02:42:00,
2013-11-03 20:52:00,48.0,34.0,29.70,North,360,17.0,-999.0,58,-99.99,,,-99.99,,2013-11-04 02:52:00,
2013-11-03 21:21:00,48.0,34.0,29.71,North,360,17.0,-999.0,58,-99.99,,,-99.99,,2013-11-04 03:21:00,
2013-11-03 21:44:00,48.0,34.0,29.71,SSE,154,19.0,-999.0,59,-99.99,,,-99.99,,2013-11-04 03:44:00,
2013-11-03 21:54:00,48.0,34.0,29.70,North,360,19.0,-999.0,58,-99.99,,,-99.99,,2013-11-04 03:54:00,
2013-11-03 22:24:00,48.0,34.0,29.71,North,360,18.0,-999.0,59,-99.99,,,-99.99,,2013-11-04 04:24:00,
2013-11-03 22:43:00,48.0,35.0,29.71,North,360,18.0,-999.0,60,-99.99,,,-99.99,,2013-11-04 04:43:00,
2013-11-03 22:52:00,48.0,36.0,29.71,North,360,18.0,-999.0,63,-99.99,,,-99.99,,2013-11-04 04:52:00,
2013-11-03 23:23:00,48.0,36.0,29.70,North,360,16.0,-999.0,62,-99.99,,,-99.99,,2013-11-04 05:23:00,
2013-11-03 23:44:00,48.0,36.0,29.70,SSE,163,15.0,-999.0,63,-99.99,,,-99.99,,2013-11-04 05:44:00,
2013-11-03 23:53:00,48.0,36.0,29.70,SSE,159,16.0,-999.0,64,-99.99,,,-99.99,,2013-11-04 05:53:00,